Hourly Data Report for October 31, 2016

All times are specified in Local Standard Time (LST). Add 1 hour to adjust for Daylight Saving Time where and when it is observed.

OTTAWA INTL A
ONTARIO

45°19'00.000" N
75°40'00.000" W
114.90 m
6106001
71628
YOW

Download Data

Hourly Data (October 2016)
Hourly Data Report for October 31, 2016
Temp Definition
°C
Dew Point Temp Definition
°C
Rel Hum Definition
%
Wind Dir Definition
10's deg

Wind Spd Definition
km/h
Visibility Definition
km
Stn Press Definition
kPa
Hmdx Definition


Wind Chill Definition


Weather Definition


TIME
00:00 Legend Double Dagger 0.8 -1.1 87 30 16 24.1 100.64     LegendNANA
01:00 Legend Double Dagger 0.5 -1.0 90 30 10 24.1 100.68     Mainly Clear
02:00 Legend Double Dagger 0.7 -1.1 88 31 14 24.1 100.70     LegendNANA
03:00 Legend Double Dagger -0.9 -2.3 90 32 10 24.1 100.73   -4 LegendNANA
04:00 Legend Double Dagger -1.3 -2.6 91 31 10 24.1 100.81   -5 Mainly Clear
05:00 Legend Double Dagger 0.8 -2.6 78 34 16 24.1 100.84     LegendNANA
06:00 Legend Double Dagger 1.1 -2.0 80 31 10 24.1 100.92     LegendNANA
07:00 Legend Double Dagger 1.6 -3.1 71 33 16 24.1 100.98     Mostly Cloudy
08:00 Legend Double Dagger 2.1 -3.6 66 35 12 24.1 101.04     LegendNANA
09:00 Legend Double Dagger 2.4 -3.9 63 36 14 24.1 101.11     LegendNANA
10:00 Legend Double Dagger 2.6 -3.5 64 34 9 24.1 101.15     Cloudy
11:00 Legend Double Dagger 2.8 -3.8 62 33 10 24.1 101.16     LegendNANA
12:00 Legend Double Dagger 3.0 -3.6 62 32 8 24.1 101.14     LegendNANA
13:00 Legend Double Dagger 3.1 -3.7 61 32 5 24.1 101.13     Mostly Cloudy
14:00 Legend Double Dagger 3.4 -2.8 64 27 13 24.1 101.16     LegendNANA
15:00 Legend Double Dagger 3.0 -3.2 64 27 5 24.1 101.16     LegendNANA
16:00 Legend Double Dagger 2.6 -3.5 64 29 4 24.1 101.17     Mostly Cloudy
17:00 Legend Double Dagger 1.9 -3.4 68 23 12 24.1 101.17     LegendNANA
18:00 Legend Double Dagger 0.4 -3.7 74 24 3 24.1 101.21     LegendNANA
19:00 Legend Double Dagger 0.5 -3.8 73 31 6 24.1 101.28     Mostly Cloudy
20:00 Legend Double Dagger -2.5 -4.7 85 12 9 24.1 101.19   -6 LegendNANA
21:00 Legend Double Dagger -1.0 -3.7 82 13 7 24.1 101.19   -4 LegendNANA
22:00 Legend Double Dagger -2.8 -4.8 86 13 7 24.1 101.15   -6 Clear
23:00 Legend Double Dagger -1.8 -4.3 83 11 10 24.1 101.14   -5 LegendNANA

Notes on Data Quality.

Legend

  • E = Estimated
  • M = Missing
  • NA = Not Available
  • ‡ = Partner data that is not subject to review by the National Climate Archives
Date modified: